Regional Weather Roundup
Issued by NWS

Home | Current Version | Previous Version | Text Only | Print | Product List | Glossary Off
Versions: 1 2 3 4 5 6 7 8 9 10 11 12 13 14 15 16 17 18 19 20 21 22 23 24 25 26 27 28 29 30 31 32 33 34 35 36 37 38 39 40 41 42 43 44 45 46 47 48 49 50

000
ASUS45 KCYS 240610
RWRWY

WYOMING REGIONAL WEATHER ROUNDUP
NATIONAL WEATHER SERVICE CHEYENNE WY
1100 PM MST FRI JAN 23 2015

NOTE:  "FAIR" INDICATES FEW OR NO CLOUDS BELOW 12,000 FEET
WITH NO SIGNIFICANT WEATHER AND/OR OBSTRUCTIONS TO VISIBILITY.

WYZ001-240700-
YELLOWSTONE NATIONAL PARK

CITY           SKY/WX    TMP DP  RH WIND       PRES   REMARKS
LK YELLOWSTONE   N/A      2  -2  83 CALM      30.37S
6HR MIN TEMP:   1; 6HR MAX TEMP:  17;

W YELLOWSTONE  NOT AVBL

$$
WYZ002>013-054>058-071-098>099-240700-
NORTHERN WYOMING

CITY           SKY/WX    TMP DP  RH WIND       PRES   REMARKS
JACKSON        FAIR       0  -2  92 N9        30.42S WCI -16
CODY           FAIR      27  23  86 CALM      30.15R
GREYBULL       FAIR      12   8  84 CALM      30.21F
6HR MIN TEMP:  10; 6HR MAX TEMP:  28;

WORLAND        FAIR      13   9  84 S7        30.21F WCI   3
6HR MIN TEMP:   7; 6HR MAX TEMP:  22;

SHERIDAN       FAIR      30  19  63 S6        30.10F WCI  24
6HR MIN TEMP:  22; 6HR MAX TEMP:  34;

BUFFALO        FAIR      33  19  56 SW5       30.11F WCI  29
6HR MIN TEMP:  30; 6HR MAX TEMP:  39;

GILLETTE       FAIR      33  23  66 SW14      30.10F WCI  23
6HR MIN TEMP:  29; 6HR MAX TEMP:  37;

HULETT           N/A    N/A N/A N/A MISG        N/A
NEWCASTLE      FAIR      27  21  80 N3        30.14F

$$
WYZ014>020-022>026-101>103-240700-
CENTRAL WYOMING

CITY           SKY/WX    TMP DP  RH WIND       PRES   REMARKS
BIG PINEY      FAIR       7   2  80 SE8       30.37F WCI  -6
6HR MIN TEMP:   6; 6HR MAX TEMP:  31;

PINEDALE       FAIR       3   1  92 CALM      30.36F
DUBOIS         FAIR      32  14  47 N10       30.21F WCI  24
LANDER         FAIR      20  17  88 NW5       30.22F WCI  13
6HR MIN TEMP:  17; 6HR MAX TEMP:  31;

RIVERTON       FAIR      17  14  88 CALM      30.23F
6HR MIN TEMP:  15; 6HR MAX TEMP:  27;

CASPER         FAIR      30  19  63 SW21      30.21F WCI  17
6HR MIN TEMP:  29; 6HR MAX TEMP:  33;

DOUGLAS        FAIR      26  21  81 NW8       30.19F WCI  18
6HR MIN TEMP:  25; 6HR MAX TEMP:  36;


$$
WYZ021-027>030-104>119-240700-
SOUTHERN WYOMING

CITY           SKY/WX    TMP DP  RH WIND       PRES   REMARKS
EVANSTON       FAIR      20  17  88 N7        30.43S WCI  11
6HR MIN TEMP:  20; 6HR MAX TEMP:  29;

FORT BRIDGER   FAIR      23  21  90 W15       30.42F WCI  10
ROCK SPRINGS   FAIR      24  17  74 SW17      30.36F WCI  11
6HR MIN TEMP:  23; 6HR MAX TEMP:  29;

DIXON          FAIR      17  10  76 CALM      30.42S
RAWLINS        FAIR      21  15  78 CALM      30.33S
6HR MIN TEMP:  21; 6HR MAX TEMP:  30;

SARATOGA       FAIR      19  14  79 SW7       30.35S WCI  10
LARAMIE        FAIR      17  12  80 S9        30.26F WCI   6
6HR MIN TEMP:  15; 6HR MAX TEMP:  28;

CHEYENNE       FAIR      32  19  58 W14       30.19F WCI  22
6HR MIN TEMP:  30; 6HR MAX TEMP:  35;

TORRINGTON     FAIR      30  23  75 W6        30.18F WCI  24
6HR MIN TEMP:  30; 6HR MAX TEMP:  41;

PINE BLUFFS    FAIR      27  19  74 W9        30.21F WCI  17

$$



USA.gov is the U.S. government's official web portal to all federal, state and local government web resources and services.